Location: Écault
(50.6679°N, 1.6025°E)
Time: 03:44:42
(UTC+00:00)

Daily predictions for brighter satellites

Satellite Brightness Start Highest point End
(mag) Time Altitude Azimuth Time Altitude Azimuth Time Altitude Azimuth
Cosmos 2082 Rocket 3.0 00:01:16 10° NW 00:06:22 36° WSW 00:09:02 23° SSW
Cosmos 468 4.5 00:03:47 26° SSW 00:06:50 78° ESE 00:12:10 10° NNE
COSMOS 2455 4.4 00:04:46 15° SE 00:07:42 21° ESE 00:12:02 10° ENE
MetOp-A 3.5 00:06:33 32° SSW 00:08:06 57° WSW 00:11:52 10° NNW
Nadezhda 1 Rocket 4.0 00:04:29 23° SSW 00:08:29 74° W 00:14:45 10° N
Cosmos 1869 4.0 00:08:38 10° N 00:11:53 37° ENE 00:13:40 21° SE
Cosmos 2278 Rocket 3.2 00:06:57 10° WSW 00:12:19 42° NW 00:17:43 10° NNE
Timation 2 Rocket 4.4 00:08:20 14° SW 00:13:53 65° NW 00:20:29 10° NNE
CZ-4C R/B 4.4 00:12:09 10° NNE 00:15:26 30° E 00:16:54 22° SE
Cosmos 1356 Rocket 3.9 00:12:06 10° N 00:16:01 51° ENE 00:18:24 22° SE
SL-8 R/B 4.0 00:15:45 24° SW 00:18:06 43° SSE 00:22:35 10° E
Cosmos 1452 Rocket 3.9 00:13:08 10° NNW 00:18:13 49° WSW 00:20:54 26° SSW
Cosmos 1992 Rocket 4.2 00:13:07 10° NNW 00:18:19 69° ENE 00:22:24 16° SE
NOSS 2-1 (E) 4.0 00:18:46 11° WSW 00:21:59 40° NW 00:24:56 10° NNE
USA 308 4.1 00:23:07 19° SE 00:23:08 19° SE 00:26:06 10° E
Cosmos 1908 Rocket 4.1 00:18:48 10° N 00:23:11 54° ENE 00:26:03 20° SSE
NOSS 3-1 (C) 3.4 00:22:31 27° S 00:24:44 46° ESE 00:30:02 10° NE
Cosmos 972 Rocket 4.4 00:26:24 10° NNW 00:32:01 53° WSW 00:34:56 25° S
Cosmos 1174 4.0 00:30:24 20° WSW 00:32:55 57° NW 00:36:15 10° NNE
CZ-3B R/B 4.5 00:28:33 21° SSW 00:33:35 60° SE 01:04:00 10° ENE
COSMOS 2406 3.6 00:28:33 10° NW 00:33:58 46° WSW 00:37:01 24° S
Cosmos 2341 Rocket 4.0 00:27:54 10° NNW 00:34:10 80° W 00:38:22 22° S
SL-8 Rocket 4.0 00:31:45 10° NNW 00:37:53 73° W 00:41:58 22° S
Cosmos 1782 Rocket 4.5 00:37:19 10° N 00:41:33 44° ENE 00:45:03 14° SE
SL-4 R/B 2.5 00:42:23 26° SE 00:42:23 26° SE 00:44:52 10° E
Cosmos 1943 Rocket 4.2 00:43:35 10° W 00:48:04 23° NW 00:52:32 10° NNE
Cosmos 2297 3.9 00:45:21 23° S 00:48:55 64° ESE 00:54:37 10° NE
DELTA 2 DEB (DPAF) 3.9 00:48:37 10° NNE 00:52:07 56° ESE 00:53:47 27° S
Lacrosse 4 Rocket 1.6 00:48:01 10° NNW 00:52:14 72° NE 00:56:25 10° SE
USA 59 Rocket 1.9 00:51:20 10° WNW 00:53:28 17° NNW 00:55:30 10° NNE
Cosmos 2369 Rocket 2.2 00:50:46 23° SSW 00:54:22 79° ESE 01:00:00 10° NNE
BREEZE-M DEB (TANK) 4.4 00:28:26 10° W 00:54:31 79° SSW 00:59:25 10° ESE
USA 290 2.2 00:53:05 10° NNW 00:56:11 59° WSW 00:57:15 35° S
CZ-2C R/B 3.7 00:55:17 20° SW 00:57:56 30° W 01:02:33 10° NNW
ADEOS Rocket 4.1 00:55:02 10° NNE 01:00:53 36° E 01:05:49 12° SSE
Cosmos 2228 Rocket 3.6 00:59:27 22° SW 01:01:58 48° WNW 01:06:15 10° N
Lacrosse 5 rocket 3.1 01:04:28 10° WNW 01:07:33 28° N 01:10:34 10° ENE
Geosat 4.1 01:02:49 10° NNE 01:07:50 76° WNW 01:11:26 19° SW
Okean 1-7 4.5 01:06:59 15° WSW 01:09:37 26° WNW 01:13:13 10° N
USA 276 1.8 01:09:04 29° WSW 01:10:19 64° SSE 01:13:17 10° E
Cosmos 1818 3.8 01:09:43 21° SSW 01:13:11 56° ESE 01:18:33 10° NE
In-Cosmos 22 Rocket 4.5 01:09:23 18° S 01:13:24 63° E 01:18:57 10° NNE
Cosmos 2239 Rocket 4.5 01:09:52 10° N 01:16:07 87° E 01:21:32 14° S
Cosmos 1300 Rocket 3.5 01:11:58 10° NNW 01:16:19 71° W 01:19:07 21° S
Cosmos 1315 Rocket 4.2 01:14:41 10° NW 01:17:42 22° W 01:19:10 18° WSW
ARIANE 6 FM1 Upper Stage 2.6 01:16:12 19° SW 01:19:05 83° NW 01:23:12 10° NE
Meteor 2-5 Rocket 4.4 01:16:25 18° SW 01:20:35 49° WNW 01:26:18 10° N
Landsat 5 4.4 01:19:08 10° N 01:22:27 31° WNW 01:24:44 17° WSW
CENTAUR R/B 4.3 01:19:16 10° NW 01:26:41 49° NNE 01:35:30 10° ESE
Cosmos 1703 Rocket 4.0 01:25:41 20° SW 01:28:26 50° WNW 01:32:44 10° N
Cosmos 2181 Rocket 4.3 01:25:44 18° SSW 01:30:27 60° WNW 01:36:48 10° N
Cosmos 1934 Rocket 4.3 01:24:50 10° N 01:31:07 70° ENE 01:37:27 10° SSE
ATLAS 5 CENTAUR R/B 1.8 01:30:58 14° WSW 01:33:12 38° NW 01:36:15 10° NNE
Nadezhda 3 Rocket 4.0 01:29:57 17° S 01:34:57 89° E 01:41:16 10° N
Cosmos 546 4.5 01:32:26 10° W 01:36:12 68° SSW 01:39:57 10° ESE
PSLV R/B 3.9 01:35:41 10° N 01:39:32 65° WNW 01:42:06 20° SSW
Cosmos 2263 4.4 01:35:20 16° SW 01:39:49 68° WNW 01:45:33 10° NNE
SeaSat 1 4.2 01:35:32 10° ESE 01:39:55 34° NE 01:44:20 10° NNW
Nimbus 7 Rocket 4.5 01:36:41 10° NNE 01:42:37 80° ESE 01:47:36 15° SSW
ACS3 Solar Sail 2.8 01:38:25 10° N 01:43:22 32° WNW 01:48:09 11° WSW
SJ 16-02 2.9 01:39:55 10° SSE 01:43:28 27° E 01:47:03 10° NE
Cosmos 921 Rocket 3.4 01:41:10 16° S 01:44:22 53° ESE 01:48:27 10° NNE
USA 308 2.6 01:41:52 18° SW 01:44:35 71° SSE 01:48:50 10° ENE
Spot 1 4.4 01:42:09 10° NNE 01:47:10 78° WNW 01:51:01 16° SSW
IDEFIX/ARIANE 42P 2.6 01:47:23 10° NNE 01:52:40 84° ESE 01:57:12 14° SSW
COSMOS 2455 2.9 01:47:52 15° SW 01:52:54 86° NW 01:58:58 10° NE
Cosmos 540 Rocket 3.6 01:48:27 10° NNW 01:53:35 77° ENE 01:58:39 10° SSE
ADEOS II 4.2 01:56:11 10° NE 02:00:00 20° E 02:03:49 10° SE
SL-8 R/B 3.6 01:55:23 10° W 02:00:05 68° S 02:04:50 10° E
Iridium 82 4.0 02:00:15 20° SSW 02:01:59 56° W 02:04:46 10° N
SL-19 R/B 3.7 01:59:09 10° SSE 02:02:29 83° WSW 02:05:45 10° NNW
Meteor 1-11 4.4 02:00:23 10° S 02:05:49 72° E 02:11:30 10° NNE
NOSS 3-1 (A) 3.0 02:01:56 14° SW 02:06:02 87° NW 02:11:56 10° NE
Resurs 1-4 Rocket 3.4 02:05:41 10° NNE 02:10:29 35° E 02:15:15 10° SSE
Okean 1 Rocket 4.2 02:06:29 10° N 02:10:41 44° ENE 02:14:49 10° SSE
NOSS 3-1 (C) 4.1 02:10:45 10° WSW 02:15:28 43° NNW 02:21:16 10° NE
Cosmos 1140 Rocket 3.6 02:11:29 13° SW 02:15:58 64° WNW 02:21:04 10° NNE
H-2A R/B 3.5 02:11:13 10° NNE 02:15:59 33° E 02:20:35 10° SSE
Cosmos 1656 4.2 02:11:05 10° S 02:16:19 51° ESE 02:21:40 10° NE
Cosmos 1346 Rocket 2.8 02:14:57 14° SSW 02:17:57 59° WNW 02:21:35 10° N
Cosmos 1605 Rocket 4.1 02:12:29 10° N 02:18:51 88° ENE 02:25:04 10° S
SL-4 R/B 1.2 02:16:00 10° WSW 02:19:10 87° SSE 02:22:17 10° ENE
H-2A R/B 4.2 02:17:57 10° SE 02:21:24 31° ENE 02:24:54 10° N
Cosmos 1763 Rocket 3.6 02:20:22 10° NNW 02:25:19 55° WSW 02:30:13 10° S
Cosmos 371 Rocket 3.3 02:23:01 11° SSW 02:27:40 89° ESE 02:32:31 10° NNE
Lacrosse 4 Rocket 3.1 02:26:52 10° WNW 02:29:29 16° WSW 02:31:50 11° SW
Cosmos 304 Rocket 3.8 02:25:25 11° SSW 02:29:56 78° WNW 02:34:45 10° NNE
Cosmos 2297 Rocket 2.4 02:27:47 10° NNW 02:33:28 79° ENE 02:39:09 10° SSE
NOSS 2-2 (D) 3.4 02:33:34 10° NW 02:37:07 88° NE 02:41:52 10° SE
Cosmos 2369 Rocket 3.8 02:34:23 10° W 02:39:00 26° NW 02:43:39 10° NNE
Cosmos 1025 Rocket 3.1 02:35:21 10° S 02:39:42 86° E 02:44:05 10° N
FENGYUN 3A 4.0 02:35:50 10° N 02:41:04 54° WNW 02:46:16 10° SW
MOZ.5/SAFIR/RUBIN 5/SL-8 3.9 02:37:34 10° S 02:42:05 59° WSW 02:46:40 10° NNW
USA 276 1.9 02:40:05 10° W 02:43:01 75° S 02:46:05 10° ESE
CZ-2D R/B 2.7 02:37:56 10° NNE 02:43:21 58° E 02:48:40 10° S
MSX 4.5 02:38:14 10° N 02:43:41 44° WNW 02:49:05 10° SW
Lacrosse 5 rocket 2.2 02:41:19 10° NW 02:44:39 43° NNE 02:47:54 10° E
ADEOS Rocket 3.6 02:40:26 10° N 02:46:35 47° WNW 02:52:09 10° SW
ALOS 2.5 02:48:17 10° NNE 02:52:50 68° ESE 02:57:22 10° S
DMSP B5D2-2 4.3 02:47:59 10° S 02:53:07 55° W 02:58:19 10° NNW
NOSS 2-2 (C) 4.0 02:49:44 10° WNW 02:53:14 36° SW 02:57:50 10° SSE
ATLAS 3B R/B 4.3 02:48:31 10° S 02:55:06 33° ESE 03:01:52 10° NE
Cosmos 468 Rocket 4.0 02:51:15 10° NNW 02:56:18 60° WSW 03:01:17 10° S
NPP 4.4 02:51:48 10° N 02:56:52 42° WNW 03:01:55 10° SW
